BELINTERSAT-1

Last updated on Sun Apr 12 2026 00:02:54 GMT+0000 (Coordinated Universal Time)

1 41238U 16001A 26101.45940839 .00000108 00000+0 00000+0 0 9995 2 41238 0.0640 70.0098 0001496 304.9933 41.5650 1.00273110 37562
UTC large
Height (km)
Speed (km/s)
/
Latitude / Longitude
Inclination (degrees)
Orbital Period (minutes)
Azimuth
Elevation
Range (km)
Doppler Factor

Next 0 passes for location: London (51.5072 / 0.1276)

Sorry there are no passes over London.
BELINTERSAT-1